Truth Or Consequences, NM

8:14 AM MDT on April 19, 2018 (GMT -0600)
Truth Or Consequences Municipal

Weather History for KTCS - September, 2012

Change the Weather History Date:

Thursday, September 20, 2012

  Actual Average Record
Temperature  
Mean Temperature 75 °F -  
Max Temperature 90 °F 83 °F 93 °F (2005)
Min Temperature 60 °F 57 °F 52 °F (2002)
Degree Days  
Heating Degree Days 0    
Month to date heating degree days 13  
Since 1 July heating degree days 13  
Cooling Degree Days 10    
Month to date cooling degree days 177  
Year to date cooling degree days 1958  
Growing Degree Days 25 (Base 50)    
Moisture  
Dew Point 28 °F    
Average Humidity 19    
Maximum Humidity 28    
Minimum Humidity 9    
Precipitation  
Precipitation 0.00 in - 0.67 in (1997)
Month to date precipitation 0.35  
Year to date precipitation 2.56  
Sea Level Pressure  
Sea Level Pressure 29.90 in    
Wind  
Wind Speed 6 mph (WNW)    
Max Wind Speed 13 mph    
Max Gust Speed 20 mph    
Visibility 10 miles    
Events      
T = Trace of Precipitation, MM = Missing Value Source: NWS Daily Summary

Daily Weather History Graph

Daily Weather History Graph

Search for Another Location

Airport or City:

Astronomy

Sep. 20, 2012 Rise Set
Actual Time 6:56 AM MDT 7:07 PM MDT
Civil Twilight 6:31 AM MDT 7:32 PM MDT
Nautical Twilight 6:02 AM MDT 8:01 PM MDT
Astronomical Twilight 5:33 AM MDT 8:30 PM MDT
Moon 11:59 AM MDT (9/20) 10:30 PM MDT (9/20)
Length of Visible Light 13h 01m
Length of Day
12h 11m
Waxing Crescent, 27% of the Moon is Illuminated
Sep 20
Waxing Crescent
Sep 22
First Quarter
Sep 29
Full
Oct 8
Last Quarter
Oct 15
New

Hourly Weather History & Observations

Time (MDT) Temp. Dew Point Humidity Pressure Visibility Wind Dir Wind Speed Gust Speed Precip Events Conditions
12:53 AM 64.0 °F 28.9 °F 27% 29.94 in 10.0 mi WNW 6.9 mph - N/A   Clear
1:53 AM 64.0 °F 30.0 °F 28% 29.93 in 10.0 mi WNW 5.8 mph - N/A   Clear
2:53 AM 64.0 °F 28.9 °F 27% 29.92 in 10.0 mi West 8.1 mph - N/A   Clear
3:53 AM 63.0 °F 28.9 °F 28% 29.91 in 10.0 mi WSW 5.8 mph - N/A   Clear
4:53 AM 64.0 °F 28.9 °F 27% 29.92 in 10.0 mi West 9.2 mph - N/A   Clear
5:53 AM 62.1 °F 28.0 °F 28% 29.93 in 10.0 mi WNW 9.2 mph - N/A   Clear
6:53 AM 62.1 °F 28.0 °F 28% 29.95 in 10.0 mi West 3.5 mph - N/A   Clear
7:53 AM 64.0 °F 28.9 °F 27% 29.97 in 10.0 mi WNW 9.2 mph - N/A   Clear
8:53 AM 70.0 °F 30.0 °F 23% 29.97 in 10.0 mi NNW 5.8 mph - N/A   Clear
9:53 AM 75.0 °F 30.0 °F 19% 29.96 in 10.0 mi NE 5.8 mph - N/A   Clear
10:53 AM 79.0 °F 30.0 °F 17% 29.95 in 10.0 mi NE 8.1 mph - N/A   Clear
11:53 AM 84.0 °F 30.0 °F 14% 29.94 in 10.0 mi NE 6.9 mph - N/A   Clear
12:53 PM 84.9 °F 28.0 °F 13% 29.92 in 10.0 mi Calm Calm - N/A   Clear
1:53 PM 87.1 °F 25.0 °F 10% 29.88 in 10.0 mi Variable 6.9 mph - N/A   Clear
2:53 PM 89.1 °F 25.0 °F 10% 29.85 in 10.0 mi SSW 3.5 mph - N/A   Clear
3:53 PM 89.1 °F 26.1 °F 10% 29.83 in 10.0 mi Variable 6.9 mph - N/A   Clear
4:53 PM 89.1 °F 25.0 °F 10% 29.81 in 10.0 mi Variable 5.8 mph - N/A   Clear
5:53 PM 88.0 °F 25.0 °F 10% 29.82 in 10.0 mi East 5.8 mph - N/A   Clear
6:53 PM 84.9 °F 27.0 °F 12% 29.82 in 10.0 mi South 5.8 mph - N/A   Clear
7:37 PM 82.4 °F 26.6 °F 13% 30.06 in 10.0 mi South 6.9 mph - N/A   Partly Cloudy
7:53 PM 81.0 °F 27.0 °F 14% 29.83 in 10.0 mi SSW 5.8 mph - N/A   Partly Cloudy
8:53 PM 79.0 °F 26.1 °F 14% 29.82 in 10.0 mi South 4.6 mph - N/A   Clear
9:53 PM 75.9 °F 25.0 °F 15% 29.84 in 10.0 mi NW 6.9 mph - N/A   Clear
10:53 PM 70.0 °F 26.1 °F 19% 29.84 in 10.0 mi ENE 4.6 mph - N/A   Clear
11:53 PM 68.0 °F 28.0 °F 22% 29.84 in 10.0 mi WNW 6.9 mph - N/A   Clear